Wind_Speed
7 7 8 8 8 9 10 11 11 11 11 12 12 12 13 13 12 13 13 13 14 15 15 15 15 16 16 16 17 17 17 18 18 18 17 17 17 17 17 18 18 19 19
8 9 9 9 10 11 12 12 12 12 12 13 13 13 14 14 14 14 15 15 15 16 15 15 16 16 16 17 18 18 19 19 19 19 19 19 19 19 18 18 19 20 20
9 10 10 10 11 12 12 13 13 13 13 14 14 14 14 15 15 15 16 16 17 17 17 16 16 17 17 18 19 20 20 20 20 20 20 20 20 20 20 20 21 21 21
11 12 12 12 13 13 13 14 14 14 14 15 15 15 15 16 16 17 17 18 18 19 18 18 18 18 18 19 20 20 21 21 21 21 21 21 21 21 21 21 21 22 22
13 13 14 14 14 14 15 15 15 15 15 16 16 16 16 17 17 18 19 19 18 18 19 19 19 19 20 21 21 22 22 22 22 22 23 22 22 23 23 23 23 23 23
14 15 15 15 15 15 15 16 16 16 16 17 17 18 18 18 19 20 20 20 19 19 19 20 21 21 21 22 22 23 23 23 23 23 23 23 23 24 24 24 24 24 24
16 16 16 16 16 16 16 17 17 17 18 18 18 19 20 20 20 21 21 22 21 21 21 22 22 22 22 23 24 24 24 24 25 25 25 25 25 26 26 26 25 24 24
17 17 17 17 17 17 18 18 18 19 19 20 21 22 22 22 22 22 23 23 23 23 23 23 23 23 23 24 25 25 25 26 26 27 27 27 27 28 27 27 27 26 25
18 18 18 19 19 19 19 20 20 20 21 22 23 23 24 24 24 24 24 24 24 24 24 25 25 25 25 25 26 26 26 27 28 28 29 29 29 29 29 28 27 27 26
21 20 20 20 20 20 21 21 22 22 23 23 24 24 24 24 24 25 25 25 25 26 26 27 27 27 27 27 28 28 28 29 29 29 29 30 29 29 30 30 29 28 27
22 22 22 22 22 22 23 24 24 24 25 25 24 25 25 25 25 25 26 26 26 26 27 28 28 28 29 29 29 30 30 30 30 30 30 30 30 31 32 31 30 29 29
23 23 23 23 23 23 24 25 26 26 26 26 26 26 26 26 26 26 26 26 27 28 28 29 29 30 30 30 31 31 31 31 31 30 30 31 31 31 32 31 30 30 30
25 24 24 25 24 25 26 26 26 27 27 27 27 27 26 26 27 27 27 28 28 29 30 30 30 30 30 31 31 31 31 31 31 30 31 31 30 30 31 31 31 31 31
26 25 26 26 26 27 26 26 27 27 27 28 27 27 27 27 27 27 27 28 29 30 31 32 33 32 32 32 32 32 32 32 31 31 32 31 30 31 31 31 31 32 31
27 26 27 27 27 28 27 27 28 28 28 28 28 28 28 28 28 28 28 29 30 30 31 32 33 33 33 32 32 32 33 33 32 31 30 30 31 31 31 32 32 32 32
28 28 28 28 28 29 28 28 28 29 29 29 28 28 28 29 29 29 29 29 30 30 31 31 32 32 32 32 32 32 32 32 32 31 31 31 31 32 32 32 32 33 32
29 29 28 28 29 29 29 29 29 29 30 30 30 30 30 30 30 30 30 30 31 31 31 32 32 32 32 32 31 31 31 31 32 32 32 31 32 32 32 32 32 32 31
30 29 29 29 29 29 30 30 30 31 31 31 31 31 31 31 31 30 31 31 32 32 32 33 32 32 32 31 31 31 31 31 31 32 32 32 32 32 32 32 32 32 31
31 31 30 30 30 30 30 30 31 31 31 31 31 31 31 30 30 31 31 32 32 32 32 32 31 31 30 30 31 31 31 31 31 31 32 32 32 32 32 32 32 32 31
32 32 32 31 31 30 30 30 30 31 30 30 30 30 30 31 31 31 31 31 31 31 31 31 30 30 30 31 31 31 32 32 33 33 32 32 33 33 32 32 32 31 31
32 32 32 32 32 31 31 31 31 31 31 30 30 30 31 31 31 31 30 30 31 31 31 31 31 31 31 31 31 32 32 33 33 33 32 32 32 32 32 32 31 31 31
32 32 32 32 32 32 32 31 31 32 32 32 31 31 31 31 31 31 31 31 31 31 31 32 31 31 31 31 31 32 32 33 33 32 32 32 32 31 31 31 30 30 30
32 32 32 33 33 32 32 32 32 32 32 32 32 32 31 31 31 31 31 32 33 32 32 31 30 30 31 31 32 32 32 32 31 31 32 32 31 32 31 31 31 31 31
32 32 32 33 33 33 33 32 32 31 32 32 32 32 32 32 32 32 32 33 33 33 32 31 30 30 31 31 32 31 31 31 31 32 31 31 31 31 31 31 31 31 31
31 31 31 31 32 32 33 32 31 31 31 32 32 32 32 32 32 32 33 34 33 32 32 31 30 30 30 30 30 30 31 31 31 31 31 31 30 30 30 30 30 30 30
30 30 29 30 30 30 30 29 29 30 30 31 31 32 32 32 32 32 33 33 32 32 31 30 29 29 30 30 30 30 30 31 31 30 29 29 29 29 30 30 30 30 30
Wind_Direction
312 316 321 328 332 328 327 327 327 323 322 326 324 324 323 321 318 317 318 315 314 313 313 313 312 311 310 309 308 308 308 309 310 308 306 306 307 307 306 306 301 298 296
304 310 312 320 327 327 324 322 321 317 314 314 316 316 317 318 317 316 314 314 311 311 311 311 310 310 308 307 306 307 307 308 308 307 305 304 303 303 304 304 304 302 300
305 306 306 310 317 319 319 319 317 314 311 310 311 313 314 314 314 312 311 310 309 307 307 309 310 310 307 305 305 305 307 308 309 309 308 306 305 304 304 305 304 303 300
301 301 302 303 308 311 314 313 312 309 309 307 307 309 311 311 309 308 308 308 305 304 305 305 306 305 305 304 304 304 304 305 306 307 307 306 305 305 305 306 306 304 302
294 295 296 299 303 306 308 307 306 305 305 304 303 306 306 307 306 306 306 307 306 304 303 302 303 301 302 303 303 303 302 303 304 305 306 306 306 306 304 304 304 305 305
289 290 292 295 298 301 304 305 303 302 303 303 301 300 301 302 304 304 304 303 301 302 304 304 302 301 301 301 301 301 302 302 303 305 305 305 305 305 304 302 302 302 302
288 289 291 293 295 299 301 304 302 300 300 301 299 298 299 300 301 302 301 302 302 302 303 303 302 302 301 301 301 301 301 301 302 303 304 303 303 304 304 305 303 303 303
285 286 288 289 291 294 297 298 300 300 299 300 299 298 298 300 299 299 299 300 300 301 301 302 301 301 303 302 301 301 302 302 302 302 302 301 300 301 301 303 302 301 302
282 283 285 286 288 289 292 295 296 296 297 298 299 298 298 300 300 299 297 298 299 300 300 300 300 300 301 300 300 300 301 301 301 300 299 299 299 300 301 300 300 299 299
279 280 282 284 286 287 288 291 293 296 297 299 299 299 299 299 300 301 301 299 298 299 299 299 299 299 300 299 298 298 299 300 299 298 297 299 300 300 301 299 298 298 298
281 281 282 284 285 287 289 291 294 296 296 296 296 295 296 297 297 299 300 300 299 299 299 298 296 296 297 298 297 297 297 298 298 297 297 296 298 297 298 299 298 299 298
281 283 285 285 286 288 290 291 292 294 295 295 296 296 296 297 296 297 299 300 300 300 300 299 298 297 296 297 296 296 297 297 298 299 298 297 297 296 298 299 298 299 299
280 282 284 284 285 289 291 290 291 292 293 293 295 296 297 297 297 298 300 301 301 301 301 301 301 299 298 297 295 296 297 298 299 299 299 300 299 299 299 298 297 297 298
279 281 284 285 287 288 292 291 292 293 294 295 294 294 296 297 298 300 300 300 300 300 300 300 301 299 298 296 295 296 297 298 299 300 299 299 299 300 299 297 297 297 296
278 280 282 284 287 290 292 294 294 294 295 296 295 294 295 297 298 299 300 300 300 299 299 300 301 301 299 297 297 297 298 299 300 302 302 302 300 299 298 298 298 297 296
278 279 281 283 285 288 290 292 293 294 294 295 295 294 295 297 298 298 298 300 301 300 300 300 301 301 300 300 300 300 300 299 300 300 300 301 300 299 299 298 299 299 297
278 279 280 282 283 285 287 288 290 292 293 294 293 293 294 295 297 298 298 299 300 299 300 300 300 301 301 300 300 300 301 300 300 300 300 300 299 299 299 299 298 298 297
277 277 280 282 283 283 285 286 288 290 290 291 291 292 295 296 296 297 297 298 299 299 300 301 301 301 301 301 302 301 301 301 301 301 300 300 300 300 300 299 299 298 297
275 276 278 281 282 283 284 285 287 289 290 291 292 293 294 294 295 296 296 297 298 299 300 301 302 303 303 302 302 302 303 303 303 303 301 299 299 299 299 299 299 298 298
275 276 278 279 281 284 284 285 287 289 290 293 294 293 292 294 295 295 295 297 298 300 301 301 302 304 304 304 303 303 303 303 303 303 302 300 299 299 299 299 298 298 298
274 275 278 279 280 282 283 285 285 287 289 292 293 293 294 294 295 296 296 297 298 299 299 300 301 302 302 303 304 304 304 304 304 303 303 302 301 300 299 298 297 297 297
271 273 276 276 278 280 280 283 286 288 290 290 291 292 294 295 296 297 297 297 298 298 299 299 300 300 301 302 303 304 304 305 304 303 302 302 301 300 299 298 297 296 296
273 275 276 275 275 278 282 285 285 287 287 288 289 291 293 295 296 297 297 298 298 298 298 298 300 301 301 303 304 305 306 306 306 304 302 302 301 301 300 298 296 296 296
274 274 275 274 275 278 281 283 285 286 287 288 290 290 292 294 295 296 297 297 298 298 298 298 299 300 301 303 304 305 305 305 305 305 305 305 304 303 303 302 300 298 298
272 273 273 274 277 279 281 284 286 288 290 290 291 291 292 292 293 295 296 296 297 299 299 298 298 299 301 302 303 304 304 305 305 306 306 305 305 304 305 305 304 304 302
273 273 274 277 279 281 284 286 288 289 291 292 292 291 291 292 293 294 295 296 298 300 299 298 298 300 302 303 303 304 305 305 306 306 307 307 306 305 305 306 306 306 304
Height
5896 5895 5894 5893 5891 5890 5889 5887 5886 5884 5883 5882 5880 5878 5877 5875 5873 5872 5870 5868 5866 5864 5862 5860 5858 5857 5855 5853 5851 5848 5846 5844 5842 5840 5838 5836 5834 5832 5829 5827 5826 5824 5822
5893 5893 5892 5891 5889 5888 5886 5885 5884 5882 5880 5879 5877 5876 5874 5872 5870 5869 5867 5865 5862 5860 5858 5856 5854 5853 5851 5849 5847 5845 5842 5840 5838 5836 5834 5832 5830 5827 5825 5823 5821 5819 5817
5891 5890 5889 5888 5887 5885 5884 5882 5881 5879 5878 5876 5875 5873 5871 5869 5867 5865 5863 5861 5859 5856 5855 5852 5850 5848 5847 5844 5842 5840 5838 5836 5833 5831 5829 5827 5825 5822 5820 5818 5816 5814 5811
5888 5887 5886 5885 5884 5882 5881 5879 5878 5876 5875 5873 5872 5870 5868 5866 5864 5862 5859 5857 5855 5852 5850 5848 5846 5844 5842 5840 5838 5835 5833 5831 5828 5826 5824 5822 5820 5817 5815 5813 5811 5808 5806
5884 5884 5883 5881 5880 5879 5877 5876 5874 5872 5871 5869 5868 5866 5864 5862 5860 5857 5855 5853 5850 5848 5846 5844 5841 5839 5837 5835 5833 5830 5828 5825 5823 5821 5818 5816 5814 5812 5810 5807 5805 5802 5800
5881 5880 5879 5878 5876 5875 5873 5871 5870 5868 5867 5865 5864 5862 5860 5857 5855 5853 5850 5848 5845 5843 5841 5839 5836 5834 5832 5829 5827 5824 5822 5820 5817 5815 5813 5810 5808 5806 5803 5801 5799 5796 5794
5876 5875 5874 5873 5872 5871 5869 5867 5865 5864 5863 5861 5859 5857 5854 5852 5850 5847 5845 5842 5840 5838 5835 5833 5831 5828 5826 5823 5821 5818 5816 5813 5811 5809 5806 5804 5802 5799 5797 5794 5792 5789 5787
5871 5870 5869 5868 5867 5866 5864 5863 5861 5859 5857 5856 5853 5851 5849 5847 5844 5842 5839 5837 5835 5832 5830 5827 5825 5822 5820 5817 5815 5812 5809 5807 5804 5802 5799 5797 5794 5792 5789 5787 5785 5783 5780
5865 5865 5864 5863 5862 5860 5859 5858 5856 5854 5852 5849 5847 5845 5843 5841 5838 5835 5833 5830 5828 5826 5824 5821 5818 5816 5813 5810 5808 5805 5803 5800 5797 5794 5791 5789 5786 5783 5781 5779 5777 5775 5773
5859 5859 5858 5857 5856 5854 5853 5852 5850 5848 5846 5843 5841 5839 5836 5834 5831 5828 5826 5823 5821 5819 5817 5814 5811 5809 5806 5803 5800 5798 5795 5792 5789 5786 5783 5781 5778 5775 5773 5770 5769 5767 5765
5853 5852 5851 5850 5849 5848 5847 5845 5844 5842 5839 5837 5835 5832 5830 5827 5825 5822 5819 5817 5814 5812 5809 5807 5804 5801 5798 5795 5793 5790 5788 5784 5781 5778 5775 5773 5770 5768 5765 5762 5760 5759 5756
5846 5845 5844 5843 5842 5841 5840 5838 5836 5835 5832 5830 5828 5825 5823 5820 5818 5815 5813 5810 5807 5805 5802 5799 5796 5793 5790 5787 5784 5782 5779 5776 5773 5770 5767 5765 5762 5760 5757 5755 5752 5750 5747
5839 5839 5838 5836 5835 5834 5832 5830 5829 5827 5825 5822 5820 5818 5816 5813 5810 5808 5806 5803 5800 5797 5794 5791 5788 5785 5782 5779 5776 5773 5770 5768 5765 5763 5760 5757 5754 5752 5749 5747 5744 5742 5739
5832 5832 5831 5829 5828 5826 5824 5823 5821 5819 5817 5814 5812 5810 5808 5806 5803 5801 5798 5795 5792 5789 5787 5783 5780 5777 5774 5771 5768 5764 5762 5759 5757 5754 5751 5749 5746 5744 5741 5738 5736 5734 5731
5825 5824 5823 5822 5821 5819 5817 5815 5813 5811 5809 5807 5805 5803 5800 5798 5796 5793 5790 5787 5785 5782 5778 5775 5772 5768 5765 5762 5759 5756 5753 5751 5748 5745 5743 5740 5738 5735 5733 5730 5727 5725 5722
5817 5816 5815 5814 5813 5811 5810 5808 5806 5804 5801 5799 5797 5795 5793 5791 5788 5786 5783 5779 5776 5773 5770 5767 5763 5760 5756 5753 5751 5748 5745 5742 5740 5737 5734 5732 5729 5727 5724 5721 5718 5716 5712
5809 5808 5807 5806 5805 5803 5802 5800 5798 5796 5793 5791 5789 5787 5785 5782 5780 5777 5774 5771 5768 5765 5761 5758 5755 5752 5748 5745 5742 5740 5737 5734 5731 5728 5726 5723 5720 5717 5715 5712 5709 5706 5703
5800 5799 5799 5798 5796 5795 5794 5792 5790 5788 5785 5783 5781 5778 5776 5774 5772 5769 5766 5763 5760 5756 5753 5750 5747 5743 5740 5737 5734 5731 5728 5725 5722 5719 5717 5714 5711 5708 5705 5703 5700 5697 5694
5791 5791 5790 5789 5787 5786 5785 5783 5781 5779 5777 5774 5773 5770 5768 5765 5763 5760 5757 5754 5751 5748 5745 5742 5738 5735 5731 5729 5726 5723 5720 5717 5714 5710 5707 5704 5701 5699 5696 5693 5690 5687 5684
5782 5781 5780 5779 5778 5777 5776 5774 5772 5771 5769 5766 5764 5762 5760 5757 5754 5752 5749 5746 5743 5740 5737 5734 5730 5727 5724 5721 5717 5714 5711 5708 5705 5702 5698 5695 5692 5689 5686 5683 5680 5678 5675
5772 5772 5771 5770 5769 5768 5767 5765 5763 5762 5760 5758 5756 5753 5751 5748 5745 5743 5740 5737 5734 5731 5728 5725 5722 5719 5716 5712 5709 5705 5702 5699 5696 5692 5689 5685 5682 5679 5676 5673 5670 5668 5665
5762 5762 5761 5760 5759 5758 5757 5756 5755 5753 5751 5749 5747 5745 5742 5739 5736 5734 5731 5728 5725 5722 5719 5716 5713 5710 5707 5704 5700 5697 5693 5690 5686 5683 5679 5676 5673 5669 5666 5663 5661 5658 5655
5752 5752 5751 5750 5749 5748 5747 5746 5745 5743 5741 5740 5737 5735 5733 5730 5727 5725 5722 5719 5716 5713 5709 5706 5704 5701 5698 5695 5691 5688 5685 5681 5678 5674 5671 5667 5664 5660 5657 5654 5652 5649 5646
5742 5742 5741 5740 5739 5738 5737 5736 5734 5733 5731 5730 5728 5726 5723 5721 5718 5715 5713 5709 5706 5703 5700 5698 5695 5692 5689 5686 5683 5679 5676 5672 5669 5665 5662 5659 5655 5652 5648 5645 5642 5639 5636
5732 5732 5731 5730 5729 5728 5727 5726 5724 5723 5722 5720 5718 5716 5714 5711 5708 5706 5703 5700 5697 5694 5691 5689 5686 5683 5681 5677 5674 5671 5667 5664 5660 5657 5653 5650 5647 5643 5640 5637 5634 5630 5627
5722 5722 5721 5721 5720 5719 5718 5717 5715 5714 5713 5711 5709 5706 5704 5702 5699 5697 5694 5691 5688 5685 5683 5680 5678 5675 5672 5669 5665 5662 5659 5656 5652 5649 5645 5642 5638 5635 5632 5629 5625 5622 5618